Content
SEND FEEDBACK

Daily
Averages
Monthly
Summary
Philippines

QUEZON CITY, PHILIPPINES


Home > Asia > Philippines
Elevation: 46 meters     Latitude: 14 39N     Longitude: 121 03E

WEATHER
 
SELECT A DAY
Number of Records: 172,756;   Date Range: 7/1/96 - 9/18/14
 
SHARE

PRINT THIS DATA

[ ← Previous Day ]
WEATHER ALMANAC - 27 APRIL, 2013
[ Next Day → ]
[ °F ]   °C
Weather ElementAverageHighLow
Temperature29.3 °C36 °C (2:00 pm)23 °C (4:00 pm)
Dewpoint23.7 °C25 °C (1:00 am)20 °C (1:00 pm)
Humidity72.4 %100 % (4:00 pm)32 % (2:00 pm)
Barometer1009.8 hPa1011.5 hPa (11:00 pm)1008.1 hPa (2:00 pm)
Wind Speed8.9 km/h29.6 km/h (4:00 pm)
Wind Gust72.3 km/h (4:00 pm)
Weather ElementAverage
Visibility9.7 km
Wind DirectionESE (99 °)

Weather ElementTotal
Precipitation---
Cooling Degree Days11.2 (Base 18.3)
Growing Degree Days19.5 (Base 10)
Averaged from 32 records on 27 April, 2013
WEATHER CONDITIONS BREAKOUT
WIND DIRECTION BREAKOUT
WEATHER BY HOUR - 27 APRIL, 2013
[ °F ]   °C
Local TimeTemperatureDewpointHumidityBarometerVisibilityWind DirectionWind SpeedGust SpeedPrecipitationEventsConditions
1:00 AM26 °C25 °C94 %1010.2 hPa9 kmNE (50°)11.1 km/hRainLight Rain
2:00 AM26.1 °C25 °C92 %1010.2 hPa9.7 kmCalmRainLight Rain
2:00 AM26 °C25 °C94 %1010.2 hPa9 kmVariable1.9 km/hScattered Clouds
3:00 AM26 °C25 °C94 %1009.1 hPa9 kmENE (70°)5.6 km/hScattered Clouds
4:00 AM26 °C24 °C89 %1009.1 hPa9 kmCalmScattered Clouds
5:00 AM26.7 °C24.4 °C84 %1009.8 hPa9.7 kmCalmHaze
5:00 AM27 °C24 °C84 %1009.1 hPa9 kmCalmScattered Clouds
6:00 AM27 °C25 °C89 %1009.1 hPa8 kmVariable3.7 km/hScattered Clouds
7:00 AM29 °C25 °C79 %1010.2 hPa9 kmSE (130°)7.4 km/hPartly Cloudy
8:00 AM30 °C24.4 °C66 %1010.8 hPa19.3 kmSE (130°)10.8 km/hHaze
8:00 AM30 °C25 °C74 %1010.2 hPa10 kmSE (130°)11.1 km/hScattered Clouds
9:00 AM31 °C25 °C70 %1011.2 hPa9 kmESE (110°)9.3 km/hScattered Clouds
10:00 AM32 °C23 °C59 %1011.2 hPa10 kmEast (100°)13 km/hPartly Cloudy
11:00 AM33.3 °C22.8 °C45 %1011.2 hPa9.7 kmSE (130°)10.8 km/hPartly Cloudy
11:00 AM34 °C23 °C52 %1011.2 hPa10 kmSE (130°)13 km/hPartly Cloudy
12:00 PM35 °C21 °C44 %1010.2 hPa10 kmSE (130°)13 km/hPartly Cloudy
1:00 PM35 °C20 °C41 %1009.1 hPa10 kmSE (130°)13 km/hPartly Cloudy
2:00 PM35.6 °C20.6 °C32 %1008.1 hPa9.7 kmEast (100°)10.8 km/hScattered Clouds
2:00 PM36 °C21 °C41 %1008.1 hPa10 kmEast (100°)11.1 km/hPartly Cloudy
3:00 PM34 °C24 °C56 %1008.1 hPa10 kmWest (280°)22.2 km/hScattered Clouds
3:30 PM28 °C25 °C84 %1008.1 hPa9 kmSSW (210°)24.1 km/hRainLight Rain Showers
4:00 PM23 °C23 °C100 %1008.1 hPa5 kmENE (60°)29.6 km/h72.3 km/hRainHeavy Rain
5:00 PM28.9 °C23.3 °C65 %1008.5 hPa9.7 kmEast (80°)10.8 km/hHaze
5:00 PM29 °C23 °C70 %1008.1 hPa10 kmEast (80°)11.1 km/hScattered Clouds
6:00 PM29 °C23 °C70 %1009.1 hPa10 kmVariable3.7 km/hMostly Cloudy
7:00 PM27 °C25 °C89 %1010.2 hPa10 kmSouth (190°)7.4 km/hMostly Cloudy
8:00 PM27.2 °C23.9 °C77 %1010.5 hPa9.7 kmSouth (190°)7.2 km/hHaze
8:00 PM27 °C24 °C84 %1010.2 hPa9 kmSouth (190°)5.6 km/hMostly Cloudy
9:00 PM27 °C23 °C79 %1010.2 hPa9 kmCalmScattered Clouds
10:00 PM28 °C24 °C79 %1011.2 hPa9 kmVariable1.9 km/hMostly Cloudy
11:00 PM28.9 °C23.9 °C68 %1011.5 hPa9.7 kmSE (130°)7.2 km/hHaze
11:00 PM29 °C24 °C74 %1011.2 hPa9 kmESE (120°)5.6 km/hScattered Clouds
Hourly data recorded from RPLL, located 0 kilometers away from Quezon City, Philippines







STORIES FROM OUR PARTNERS